Regional Weather Roundup
Issued by NWS

Home | Current Version | Previous Version | Text Only | Print | Product List | Glossary On
Versions: 1 2 3 4 5 6 7 8 9 10 11 12 13 14 15 16 17 18 19 20 21 22 23 24 25 26 27 28 29 30 31 32 33 34 35 36 37 38 39 40 41 42 43 44 45 46 47 48 49 50
000
ASUS44 KMEG 280010
RWRTN
TENNESSEE HOURLY STATE WEATHER ROUNDUP
NATIONAL WEATHER SERVICE MEMPHIS TN
700 PM CDT SAT AUG 27 2016

TNZ002-004-019-021-049-052-054-088>092-280100-
WEST TENNESSEE

CITY           SKY/WX    TMP DP  RH WIND       PRES   REMARKS
MEMPHIS INTL   PTCLDY    90  68  48 E8        30.01R HX  94
NWS MEMPHIS      N/A     86 N/A N/A MISG        N/A
JACKSON        PTCLDY    82  75  79 NE7       30.03S
DYERSBURG      CLEAR    N/A N/A N/A CALM      30.01
UNION CITY     CLEAR     90  72  55 E3        30.01F HX  96
PARIS          CLEAR     84  75  74 E6        30.05S HX  92
$$

TNZ008-025-027-028-033-062-065-066-280100-
NORTH MIDDLE TENNESSEE

CITY           SKY/WX    TMP DP  RH WIND       PRES   REMARKS
NASHVILLE      CLOUDY    76  71  85 CALM      30.06F
CLARKSVILLE    CLOUDY    76  72  87 NE7       30.06F
SMYRNA         CLEAR     77  73  88 CALM      30.07F
COOKEVILLE     PTCLDY    79  73  83 CALM      30.10R
CROSSVILLE     PTCLDY    83  67  58 E3        30.17R
$$

TNZ061-075-076-078-094-096-097-280100-
SOUTH MIDDLE TENNESSEE

CITY           SKY/WX    TMP DP  RH WIND       PRES   REMARKS
FAYETTEVILLE   PTCLDY    82  75  78 NE6       30.07S
TULLAHOMA      PTCLDY    81  70  69 NE5       30.10F
WINCHESTER     CLEAR     82  73  74 CALM      30.09S
MCMINNVILLE    CLEAR     82  75  78 CALM      30.11R
COLUMBIA       CLEAR     79  79 100 E3        30.04F
SHELBYVILLE    CLEAR     81  73  78 E5        30.08F
$$

TNZ017-018-042-046-047-280100-
NORTHEAST TENNESSEE

CITY           SKY/WX    TMP DP  RH WIND       PRES   REMARKS
TRI CITIES     CLOUDY    81  68  64 S5        30.15R
ELIZABETHTON   CLOUDY    79  72  78 CALM      30.16R
$$

TNZ012-013-036-069-073-074-280100-
CENTRAL EAST TENNESSEE

CITY           SKY/WX    TMP DP  RH WIND       PRES   REMARKS
KNOXVILLE      PTCLDY    74  68  81 NE3       30.11R
OAK RIDGE      CLOUDY    83  70  64 E5        30.11R
GATLINBURG     PTCLDY    73  70  88 CALM      30.13R
MORRISTOWN     CLEAR     81  68  65 VRB5G12   30.14R
$$

TNZ083-085-099-280100-
SOUTHEAST TENNESSEE

CITY           SKY/WX    TMP DP  RH WIND       PRES   REMARKS
CHATTANOOGA    PTCLDY    86  71  60 NE8       30.06R HX  91
$$

SKY/WX REPORTED AS FAIR MEANS FEW OR NO CLOUDS BELOW
12 THOUSAND FEET.




USA.gov is the U.S. government's official web portal to all federal, state and local government web resources and services.